Change the Weather History Date:

Tuesday, November 27, 2012

  Actual Average Record
Temperature  
Mean Temperature 24 °F -  
Max Temperature 33 °F 40 °F 61 °F (2006)
Min Temperature 14 °F 26 °F 8 °F (2014)
Degree Days  
Heating Degree Days 41 32  
Month to date heating degree days 708 682  
Since 1 July heating degree days 1359 1288  
Cooling Degree Days 0 0  
Month to date cooling degree days 0 0  
Year to date cooling degree days 983 564  
Moisture  
Dew Point 10 °F    
Average Humidity 55    
Maximum Humidity 73    
Minimum Humidity 36    
Precipitation  
Precipitation 0.00 in 0.09 in 0.28 in (2004)
Month to date precipitation 0.41 2.51  
Year to date precipitation 23.41 33.34  
Sea Level Pressure  
Sea Level Pressure 30.36 in    
Wind  
Wind Speed 7 mph (WSW)    
Max Wind Speed 13 mph    
Max Gust Speed 20 mph    
Visibility 10 miles    
Events      
T = Trace of Precipitation, MM = Missing Value Source: NWS Daily Summary

Daily Weather History Graph

Daily Weather History Graph

Search for Another Location

Airport or City:

Trip Planner

Search our weather history database for the weather conditions in past years. The results will help you decide how hot, cold, wet, or windy it might be!

Date:

Astronomy

Nov. 27, 2012 Rise Set
Actual Time 6:57 AM CST 4:20 PM CST
Civil Twilight 6:26 AM CST 4:52 PM CST
Nautical Twilight 5:51 AM CST 5:26 PM CST
Astronomical Twilight 5:17 AM CST 6:00 PM CST
Moon 3:52 PM CST (11/27) 6:01 AM CST (11/27)
Length of Visible Light 10h 25m
Length of Day
9h 23m
Waxing Gibbous, 99% of the Moon is Illuminated
Nov 27
Waxing Gibbous
Nov 28
Full
Dec 6
Last Quarter
Dec 13
New
Dec 19
First Quarter

Hourly Weather History & Observations

Time (CST) Temp. Windchill Dew Point Humidity Pressure Visibility Wind Dir Wind Speed Gust Speed Precip Events Conditions
12:52 AM 18.0 °F 12.7 °F 9.0 °F 68% 30.40 in 10.0 mi WNW 3.5 mph - N/A   Clear
1:52 AM 17.1 °F 8.7 °F 9.0 °F 71% 30.41 in 10.0 mi WNW 5.8 mph - N/A   Clear
2:52 AM 17.1 °F 10.0 °F 8.1 °F 68% 30.40 in 10.0 mi WNW 4.6 mph - N/A   Clear
3:52 AM 16.0 °F 7.4 °F 8.1 °F 71% 30.40 in 10.0 mi WNW 5.8 mph - N/A   Clear
4:52 AM 16.0 °F 10.4 °F 8.1 °F 71% 30.41 in 10.0 mi WNW 3.5 mph - N/A   Clear
5:52 AM 15.1 °F 9.4 °F 8.1 °F 74% 30.41 in 10.0 mi Variable 3.5 mph - N/A   Clear
6:52 AM 15.1 °F 6.4 °F 7.0 °F 70% 30.41 in 10.0 mi WNW 5.8 mph - N/A   Clear
7:52 AM 18.0 °F 9.8 °F 8.1 °F 65% 30.42 in 10.0 mi WNW 5.8 mph - N/A   Clear
8:52 AM 23.0 °F 14.7 °F 10.0 °F 58% 30.44 in 10.0 mi WNW 6.9 mph - N/A   Clear
9:52 AM 26.1 °F 20.5 °F 8.1 °F 47% 30.44 in 10.0 mi West 4.6 mph - N/A   Clear
10:52 AM 28.9 °F 21.9 °F 9.0 °F 43% 30.43 in 10.0 mi Variable 6.9 mph - N/A   Clear
11:52 AM 30.9 °F 24.3 °F 9.0 °F 40% 30.39 in 8.0 mi SW 6.9 mph - N/A   Clear
12:52 PM 32.0 °F 27.5 °F 9.0 °F 38% 30.37 in 10.0 mi WSW 4.6 mph 19.6 mph N/A   Clear
1:52 PM 32.0 °F 25.6 °F 9.0 °F 38% 30.33 in 10.0 mi SW 6.9 mph - N/A   Clear
2:52 PM 32.0 °F 25.6 °F 9.0 °F 38% 30.31 in 10.0 mi SW 6.9 mph - N/A   Clear
3:52 PM 30.0 °F 21.7 °F 10.9 °F 45% 30.30 in 10.0 mi SSW 9.2 mph - N/A   Clear
4:52 PM 27.0 °F 20.5 °F 10.9 °F 51% 30.30 in 10.0 mi SSW 5.8 mph - N/A   Clear
5:52 PM 24.1 °F 16.0 °F 10.9 °F 57% 30.31 in 10.0 mi SSW 6.9 mph - N/A   Clear
6:52 PM 28.0 °F 20.0 °F 12.9 °F 53% 30.30 in 10.0 mi SSW 8.1 mph - N/A   Scattered Clouds
7:52 PM 28.0 °F 19.3 °F 14.0 °F 56% 30.29 in 10.0 mi SW 9.2 mph - N/A   Overcast
8:52 PM 28.9 °F 19.2 °F 14.0 °F 54% 30.28 in 10.0 mi SW 11.5 mph - N/A   Overcast
9:52 PM 28.9 °F 19.8 °F 12.9 °F 51% 30.27 in 10.0 mi SW 10.4 mph - N/A   Overcast
10:52 PM 30.0 °F 21.7 °F 14.0 °F 51% 30.26 in 10.0 mi SW 9.2 mph - N/A   Scattered Clouds
11:52 PM 30.9 °F 25.2 °F 14.0 °F 50% 30.26 in 10.0 mi Variable 5.8 mph - N/A   Overcast